Time,TemperatureF,DewpointF,PressureIn,WindDirection,WindDirectionDegrees,WindSpeedMPH,WindSpeedGustMPH,Humidity,HourlyPrecipIn,Conditions,Clouds,dailyrainin,SoftwareType,DateUTC
2017-02-26 05:32:00,27.3,24.8,29.93,WNW,283,5.0,8.0,90,0.00,,,0.00,Wunderground v.1.15,2017-02-26 10:32:00,
2017-02-26 05:38:00,27.4,24.9,29.93,West,279,5.0,8.0,90,0.00,,,0.00,Wunderground v.1.15,2017-02-26 10:38:00,
2017-02-26 05:44:00,27.4,24.9,29.93,WNW,288,5.0,8.0,90,0.00,,,0.00,Wunderground v.1.15,2017-02-26 10:44:00,
2017-02-26 05:50:00,27.4,24.9,29.93,NW,306,5.0,8.0,90,0.00,,,0.00,Wunderground v.1.15,2017-02-26 10:50:00,
2017-02-26 05:56:00,27.5,25.0,29.94,WNW,284,5.0,7.0,90,0.00,,,0.00,Wunderground v.1.15,2017-02-26 10:56:00,
2017-02-26 06:02:00,27.6,24.8,29.94,NW,321,5.0,10.0,89,0.00,,,0.00,Wunderground v.1.15,2017-02-26 11:02:00,
2017-02-26 06:08:00,27.6,24.8,29.94,West,273,5.0,11.0,89,0.00,,,0.00,Wunderground v.1.15,2017-02-26 11:08:00,
2017-02-26 06:14:00,27.6,24.5,29.95,WNW,284,5.0,11.0,88,0.00,,,0.00,Wunderground v.1.15,2017-02-26 11:14:00,
2017-02-26 06:20:00,27.6,24.2,29.95,WNW,286,5.0,6.0,87,0.00,,,0.00,Wunderground v.1.15,2017-02-26 11:20:00,
2017-02-26 06:26:00,27.5,24.1,29.95,West,273,5.0,11.0,87,0.00,,,0.00,Wunderground v.1.15,2017-02-26 11:26:00,
2017-02-26 06:32:00,27.5,23.9,29.95,WNW,291,5.0,6.0,86,0.00,,,0.00,Wunderground v.1.15,2017-02-26 11:32:00,
2017-02-26 06:38:00,27.5,23.9,29.95,WNW,295,6.0,10.0,86,0.00,,,0.00,Wunderground v.1.15,2017-02-26 11:38:00,
2017-02-26 06:44:00,27.5,24.1,29.96,WNW,287,6.0,11.0,87,0.00,,,0.00,Wunderground v.1.15,2017-02-26 11:44:00,
2017-02-26 06:50:00,27.5,24.1,29.96,WSW,252,5.0,9.0,87,0.00,,,0.00,Wunderground v.1.15,2017-02-26 11:50:00,
2017-02-26 06:56:00,27.6,24.2,29.96,West,267,5.0,13.0,87,0.00,,,0.00,Wunderground v.1.15,2017-02-26 11:56:00,
2017-02-26 07:02:00,27.6,24.2,29.96,WNW,285,5.0,6.0,87,0.00,,,0.00,Wunderground v.1.15,2017-02-26 12:02:00,
2017-02-26 07:08:00,27.7,24.3,29.96,WSW,256,5.0,15.0,87,0.00,,,0.00,Wunderground v.1.15,2017-02-26 12:08:00,
2017-02-26 07:14:00,27.8,24.2,29.97,West,275,6.0,13.0,86,0.00,,,0.00,Wunderground v.1.15,2017-02-26 12:14:00,
2017-02-26 07:20:00,27.8,24.2,29.97,West,279,6.0,9.0,86,0.00,,,0.00,Wunderground v.1.15,2017-02-26 12:20:00,
2017-02-26 07:26:00,27.8,24.2,29.98,West,264,7.0,11.0,86,0.00,,,0.00,Wunderground v.1.15,2017-02-26 12:26:00,